Home > Weather > Parma > Past weeks

Flag for Italy Weather for the Past 2 Weeks in Parma, Italy

Now
36 °F

Clear.


Feels Like: 36 °F
Forecast: 34 / 47 °F
Wind: 2 mph from North

Location: Parma

Current Time: Feb 11, 2016 at 10:46:48 PM

Latest Report: Feb 11, 2016 at 9:50 PM


Visibility: 10 mi

Pressure: 29.77 "Hg

Humidity: 75%

Dew point: 28 °F

Location of ParmaLocation

Historic Weather in Parma — Graph

°F

Parma Temperature Yesterday

Maximum temperature yesterday: 55 °F (at 2:50 PM)
Minimum temperature yesterday: 39 °F (at 8:50 PM)
Average temperature yesterday: 48 °F

High & Low Weather Summary for the Past Weeks

 TemperatureHumidityPressure
High59 °F (Feb 4, 4:50 PM)100% (Jan 29, 7:50 AM)30.48 "Hg (Jan 29, 7:50 AM)
Low28 °F (Feb 5, 7:50 AM)26% (Feb 10, 4:50 PM)29.36 "Hg (Feb 10, 7:00 AM)
Average46 °F79%30.10 "Hg
* Reported Jan 27 8:50 PM — Feb 11 8:50 PM, Parma, Weather by CustomWeather, © 2016

Note: Actual official high and low records may vary slightly from our data, if they occured in-between our weather recording intervals... More about our weather records

Advertising

Parma Weather History for the Previous 24 Hours

 ConditionsComfort  
Time TempWeatherWind HumidityBarometerVisibility
8:50 PM
Thu, Feb 11
39 °FClear.1 mph61%29.77 "Hg10 mi
7:50 PM37 °FClear.3 mph65%29.77 "Hg10 mi
6:50 PM45 °FClear.3 mph49%29.77 "Hg10 mi
5:50 PM48 °FClear.3 mph40%29.77 "Hg10 mi
4:50 PM52 °FSunny.2 mph32%29.74 "Hg10 mi
3:50 PM52 °FSunny.5 mph32%29.74 "Hg10 mi
2:50 PM52 °FSunny.1 mph38%29.77 "Hg10 mi
1:50 PM50 °FSunny.1 mph43%29.77 "Hg10 mi
12:50 PM48 °FSunny.3 mph43%29.80 "Hg10 mi
11:50 AM46 °FSunny.5 mph43%29.80 "Hg10 mi
10:50 AM43 °FSunny.6 mph46%29.80 "Hg10 mi
9:50 AM41 °FSunny.6 mph49%29.77 "Hg10 mi
8:50 AM34 °FSunny.3 mph70%29.77 "Hg10 mi
7:50 AM32 °FSunny.7 mph64%29.74 "Hg10 mi
7:00 AM28 °FClear.7 mph74%29.74 "Hg10 mi
10:50 PM
Wed, Feb 10
39 °FPassing clouds.13 mph48%29.62 "HgN/A
Weather by CustomWeather, © 2016

See weather overviewHow to use our weather pages